Location: Carabito
(9.8355°N, 67.9249°W)
Time: 10:55:21
(UTC+00:00)

Cosmos 1892 Rocket - Pass Details

Date: 23 May 2024
Orbit: 604 x 628 km, 82.5° (Epoch: 20 June)

Event Time Altitude Azimuth Distance (km) Brightness Sun altitude
Rises 09:44:56 0° 177° (S) 2,850 6.8 -6.5°
Reaches altitude 10° 09:47:10 10° 173° (S) 1,945 6.0 -6.0°
Maximum altitude 09:51:24 59° 93° (E) 694 4.2 -5.1°
Drops below altitude 10° 09:55:37 10° 14° (NNE) 1,942 6.7 -4.1°
Sets 09:57:51 0° 10° (N) 2,845 7.4 -3.6°
